Port Weller, Ontario

4:53 AM EDT on July 21, 2017 (GMT -0400)
Port Weller

Weather History for CWWZ - September, 2012

Change the Weather History Date:

Friday, September 21, 2012

  Actual Average (CYSN) Record (CYSN)
Temperature  
Mean Temperature 64 °F -  
Max Temperature 68 °F 68 °F 84 °F (2007)
Min Temperature 60 °F 52 °F 44 °F (1997)
Degree Days  
Heating Degree Days 1    
Growing Degree Days 14 (Base 50)    
Moisture  
Dew Point 53 °F    
Average Humidity 66    
Maximum Humidity 84    
Minimum Humidity 39    
Precipitation  
Precipitation 0.08 in - - ()
Sea Level Pressure  
Sea Level Pressure 29.88 in    
Wind  
Wind Speed 5 mph ()    
Max Wind Speed 12 mph    
Max Gust Speed 20 mph    
Averages and records for this station are not official NWS values.
T = Trace of Precipitation, MM = Missing Value Source: Averaged Metar Reports

Daily Weather History Graph

Daily Weather History Graph

Search for Another Location

Airport or City:

Trip Planner

Search our weather history database for the weather conditions in past years. The results will help you decide how hot, cold, wet, or windy it might be!

Date:

Astronomy

Sep. 21, 2012 Rise Set
Actual Time 7:03 AM EDT 7:15 PM EDT
Civil Twilight 6:35 AM EDT 7:43 PM EDT
Nautical Twilight 6:01 AM EDT 8:16 PM EDT
Astronomical Twilight 5:27 AM EDT 8:50 PM EDT
Moon 1:33 PM EDT 11:04 PM EDT
Length of Visible Light 13h 08m
Length of Day
12h 11m
Waxing Crescent, 37% of the Moon is Illuminated
Sep 21
Waxing Crescent
Sep 22
First Quarter
Sep 29
Full
Oct 8
Last Quarter
Oct 15
New

Hourly Weather History & Observations

Time (EDT) Temp. Dew Point Humidity Pressure Visibility Wind Dir Wind Speed Gust Speed Precip Events Conditions
12:00 AM 68.5 °F 50.9 °F 53% 29.86 in - South 10.4 mph - N/A   Unknown
1:00 AM 68.4 °F 52.9 °F 58% 29.86 in - SSW 5.8 mph - N/A   Unknown
2:00 AM 66 °F 56 °F 63% 29.87 in - SW 1.2 mph - -  
2:00 AM 66.0 °F 56.5 °F 71% 29.87 in - SW 1.2 mph - N/A   Unknown
3:00 AM 66.2 °F 55.6 °F 69% 29.89 in - West 11.5 mph 19.6 mph N/A   Unknown
4:00 AM 62.8 °F 57.0 °F 81% 29.90 in - West 9.2 mph - N/A   Unknown
5:00 AM 62 °F 56 °F 73% 29.89 in - SSW 3.5 mph - -  
5:00 AM 61.5 °F 55.6 °F 81% 29.89 in - SSW 3.5 mph - N/A   Unknown
6:00 AM 61.0 °F 55.0 °F 81% 29.90 in - WSW 1.2 mph - N/A   Unknown
7:00 AM 60.6 °F 55.8 °F 84% 29.91 in - South 3.5 mph - N/A   Unknown
8:00 AM 61 °F 53 °F 67% 29.91 in - South 2.3 mph - -  
8:00 AM 61.0 °F 52.9 °F 75% 29.91 in - South 2.3 mph - N/A   Unknown
9:00 AM 62.2 °F 54.7 °F 76% 29.91 in - South 4.6 mph - N/A   Unknown
10:00 AM 63.0 °F 54.5 °F 74% 29.91 in - SE 4.6 mph - N/A   Unknown
11:00 AM 65 °F 54 °F 59% 29.92 in - WSW 1.2 mph - -  
11:00 AM 65.3 °F 54.1 °F 67% 29.92 in - WSW 1.2 mph - N/A   Unknown
12:00 PM 67.1 °F 57.2 °F 70% 29.91 in - NNW 8.1 mph - N/A   Unknown
1:00 PM 63.9 °F 56.5 °F 77% 29.90 in - North 8.1 mph - N/A   Unknown
2:00 PM 66 °F 54 °F 56% 29.89 in - NNW 5.8 mph - -  
2:00 PM 66.0 °F 54.1 °F 65% 29.89 in - NNW 5.8 mph - N/A   Unknown
3:00 PM 63.7 °F 53.8 °F 70% 29.89 in - NE 2.3 mph - N/A   Unknown
4:00 PM 65.3 °F 53.2 °F 65% 29.87 in - East 4.6 mph - N/A   Unknown
5:00 PM 67 °F 48 °F 39% 29.87 in - SW 3.5 mph - -  
5:00 PM 66.7 °F 48.0 °F 51% 29.87 in - SW 3.5 mph - N/A   Unknown
6:00 PM 66.2 °F 47.3 °F 51% 29.87 in - SW 4.6 mph - N/A   Unknown
7:00 PM 65.1 °F 49.8 °F 58% 29.88 in - WSW 3.5 mph - N/A   Unknown
8:00 PM 64 °F 50 °F 51% 29.87 in - SW 3.5 mph - -  
8:00 PM 63.7 °F 50.2 °F 61% 29.87 in - SW 3.5 mph - N/A   Unknown
9:00 PM 62.6 °F 48.4 °F 60% 29.88 in - South 4.6 mph - N/A   Unknown
10:00 PM 61.3 °F 51.3 °F 69% 29.84 in - SSE 6.9 mph - N/A   Unknown
11:00 PM 62 °F 50 °F 56% 29.83 in - SSE 6.9 mph - -  
11:00 PM 61.5 °F 50.2 °F 66% 29.83 in - SSE 6.9 mph - N/A   Unknown